TimeEDT,TemperatureF,Dew PointF,Humidity,Sea Level PressureIn,VisibilityMPH,Wind Direction,Wind SpeedMPH,Gust SpeedMPH,PrecipitationIn,Events,Conditions,WindDirDegrees,DateUTC
12:53 AM,71.1,64.0,78,30.04,10.0,WNW,6.9,-,N/A,,Clear,300,2013-04-02 04:53:00
1:53 AM,69.1,64.9,87,30.04,10.0,WNW,8.1,-,N/A,,Clear,290,2013-04-02 05:53:00
2:53 AM,68.0,66.0,93,30.02,10.0,WNW,8.1,-,N/A,,Clear,290,2013-04-02 06:53:00
3:53 AM,66.9,66.0,97,30.01,10.0,WNW,4.6,-,N/A,,Clear,290,2013-04-02 07:53:00
4:53 AM,66.9,66.9,100,30.01,10.0,West,4.6,-,N/A,,Clear,280,2013-04-02 08:53:00
5:53 AM,66.0,66.0,100,30.02,8.0,West,5.8,-,N/A,,Clear,270,2013-04-02 09:53:00
6:14 AM,66.2,66.2,100,30.02,6.0,West,5.8,-,N/A,,Scattered Clouds,280,2013-04-02 10:14:00
6:25 AM,66.2,66.2,100,30.02,3.0,WNW,8.1,-,N/A,,Mostly Cloudy,300,2013-04-02 10:25:00
6:27 AM,66.2,66.2,100,30.02,1.8,NW,8.1,-,N/A,,Mostly Cloudy,310,2013-04-02 10:27:00
6:33 AM,66.2,66.2,100,30.02,0.5,NW,6.9,-,N/A,Fog,Fog,310,2013-04-02 10:33:00
6:45 AM,66.2,66.2,100,30.03,1.0,NW,5.8,-,N/A,,Mist,320,2013-04-02 10:45:00
6:53 AM,66.0,66.0,100,30.03,1.8,NW,8.1,-,N/A,,Overcast,320,2013-04-02 10:53:00
6:59 AM,66.2,66.2,100,30.03,3.0,NW,6.9,-,N/A,,Overcast,320,2013-04-02 10:59:00
7:53 AM,66.0,66.0,100,30.06,4.0,NW,6.9,-,N/A,,Overcast,310,2013-04-02 11:53:00
8:39 AM,66.2,66.2,100,30.08,7.0,NNW,8.1,-,N/A,,Partly Cloudy,330,2013-04-02 12:39:00
8:53 AM,69.1,66.9,93,30.08,9.0,NW,5.8,-,N/A,,Clear,320,2013-04-02 12:53:00
9:53 AM,73.0,64.9,76,30.09,10.0,NW,9.2,-,N/A,,Clear,320,2013-04-02 13:53:00
10:53 AM,77.0,64.0,64,30.09,10.0,NNW,3.5,-,N/A,,Clear,330,2013-04-02 14:53:00
11:53 AM,80.1,62.1,54,30.10,10.0,Calm,Calm,-,N/A,,Clear,0,2013-04-02 15:53:00
12:53 PM,79.0,64.0,60,30.09,10.0,East,10.4,-,N/A,,Clear,100,2013-04-02 16:53:00
1:53 PM,78.1,64.9,64,30.07,10.0,East,10.4,-,N/A,,Partly Cloudy,100,2013-04-02 17:53:00
2:53 PM,80.1,63.0,56,30.05,10.0,East,10.4,-,N/A,,Partly Cloudy,80,2013-04-02 18:53:00
3:53 PM,80.1,64.0,58,30.03,10.0,ENE,11.5,-,N/A,,Clear,70,2013-04-02 19:53:00
4:53 PM,79.0,64.0,60,30.03,10.0,ENE,10.4,-,N/A,,Clear,70,2013-04-02 20:53:00
5:53 PM,79.0,63.0,58,30.03,10.0,ENE,12.7,-,N/A,,Clear,60,2013-04-02 21:53:00
6:53 PM,77.0,64.0,64,30.04,10.0,ENE,10.4,-,N/A,,Clear,70,2013-04-02 22:53:00
7:53 PM,75.0,66.0,73,30.04,10.0,ENE,8.1,-,N/A,,Clear,70,2013-04-02 23:53:00
8:53 PM,75.0,66.0,73,30.06,10.0,ENE,9.2,-,N/A,,Clear,60,2013-04-03 00:53:00
9:53 PM,75.0,66.0,73,30.08,10.0,ENE,8.1,-,N/A,,Clear,60,2013-04-03 01:53:00
10:53 PM,73.9,68.0,82,30.09,10.0,East,9.2,-,N/A,,Partly Cloudy,90,2013-04-03 02:53:00
11:53 PM,73.9,68.0,82,30.08,10.0,East,5.8,-,N/A,,Clear,80,2013-04-03 03:53:00